Change the Weather History Date:

Wednesday, July 2, 2014

  Actual Average Record
Temperature  
Mean Temperature 58 °F -  
Max Temperature 80 °F 76 °F 89 °F (2007)
Min Temperature 37 °F 38 °F 28 °F (1973)
Degree Days  
Heating Degree Days 6    
Growing Degree Days 8 (Base 50)    
Moisture  
Dew Point 38 °F    
Average Humidity 56    
Maximum Humidity 93    
Minimum Humidity 16    
Precipitation  
Precipitation 0.00 in - - ()
Sea Level Pressure  
Sea Level Pressure 30.25 in    
Wind  
Wind Speed 8 mph (North)    
Max Wind Speed 16 mph    
Max Gust Speed 22 mph    
Visibility 10 miles    
Events      
Averages and records for this station are not official NWS values.
T = Trace of Precipitation, MM = Missing Value Source: NWS Daily Summary

Daily Weather History Graph

Daily Weather History Graph

Search for Another Location

Airport or City:

Trip Planner

Search our weather history database for the weather conditions in past years. The results will help you decide how hot, cold, wet, or windy it might be!

Date:

Astronomy

Jul. 02, 2014 Rise Set
Actual Time 5:45 AM MDT 9:07 PM MDT
Civil Twilight 5:10 AM MDT 9:43 PM MDT
Nautical Twilight 4:23 AM MDT 10:29 PM MDT
Astronomical Twilight 3:25 AM MDT 11:27 PM MDT
Moon 11:02 AM MDT (7/2) 11:51 PM MDT (7/2)
Length of Visible Light 16h 33m
Length of Day
15h 21m
Waxing Crescent, 25% of the Moon is Illuminated
Jul 2
Waxing Crescent
Jul 5
First Quarter
Jul 12
Full
Jul 18
Last Quarter
Jul 26
New

Hourly Weather History & Observations

Time (MDT) Temp. Windchill Dew Point Humidity Pressure Visibility Wind Dir Wind Speed Gust Speed Precip Events Conditions
12:15 AM 57.2 °F - 39.2 °F 51% 30.26 in 10.0 mi North 16.1 mph - N/A   Clear
12:35 AM 57.2 °F - 37.4 °F 48% 30.26 in 10.0 mi North 15.0 mph 20.7 mph N/A   Clear
12:55 AM 57.2 °F - 39.2 °F 51% 30.27 in 10.0 mi North 15.0 mph - N/A   Clear
1:15 AM 57.2 °F - 39.2 °F 51% 30.27 in 10.0 mi North 15.0 mph 21.9 mph N/A   Clear
1:35 AM 55.4 °F - 39.2 °F 54% 30.27 in 10.0 mi North 12.7 mph - N/A   Clear
1:55 AM 55.4 °F - 39.2 °F 54% 30.26 in 10.0 mi North 15.0 mph 19.6 mph N/A   Clear
2:15 AM 55.4 °F - 39.2 °F 54% 30.27 in 10.0 mi North 11.5 mph 19.6 mph N/A   Clear
2:35 AM 55.4 °F - 39.2 °F 54% 30.27 in 10.0 mi North 10.4 mph - N/A   Clear
2:55 AM 51.8 °F - 37.4 °F 58% 30.28 in 10.0 mi Calm Calm - N/A   Clear
3:15 AM 46.4 °F 43.5 °F 37.4 °F 71% 30.29 in 10.0 mi SW 5.8 mph - N/A   Clear
3:35 AM 44.6 °F 43.1 °F 35.6 °F 71% 30.29 in 10.0 mi SE 3.5 mph - N/A   Clear
3:55 AM 42.8 °F - 35.6 °F 76% 30.29 in 10.0 mi Calm Calm - N/A   Clear
4:15 AM 42.8 °F - 35.6 °F 76% 30.29 in 10.0 mi Calm Calm - N/A   Clear
4:35 AM 42.8 °F - 35.6 °F 76% 30.29 in 10.0 mi Calm Calm - N/A   Clear
4:55 AM 37.4 °F - 33.8 °F 87% 30.29 in 10.0 mi Calm Calm - N/A   Clear
5:15 AM 42.8 °F 41.1 °F 35.6 °F 76% 30.30 in 10.0 mi NE 3.5 mph - N/A   Clear
5:35 AM 39.2 °F - 35.6 °F 87% 30.30 in 10.0 mi Calm Calm - N/A   Clear
5:55 AM 39.2 °F 35.9 °F 35.6 °F 87% 30.30 in 10.0 mi NNE 4.6 mph - N/A   Clear
6:15 AM 39.2 °F 37.0 °F 35.6 °F 87% 30.30 in 10.0 mi North 3.5 mph - N/A   Clear
6:35 AM 39.2 °F 34.2 °F 37.4 °F 93% 30.31 in 10.0 mi North 6.9 mph - N/A   Clear
6:55 AM 41.0 °F 36.4 °F 37.4 °F 87% 30.31 in 10.0 mi North 6.9 mph - N/A   Clear
8:55 AM 57.2 °F - 39.2 °F 51% 30.31 in 10.0 mi South 6.9 mph - N/A   Clear
9:55 AM 60.8 °F - 39.2 °F 45% 30.31 in 10.0 mi South 4.6 mph - N/A   Clear
10:55 AM 64.4 °F - 39.2 °F 40% 30.29 in 10.0 mi South 4.6 mph - N/A   Clear
11:55 AM 69.8 °F - 39.2 °F 33% 30.27 in 10.0 mi Calm Calm - N/A   Clear
12:55 PM 71.6 °F - 39.2 °F 31% 30.25 in 10.0 mi SSW 10.4 mph - N/A   Clear
1:55 PM 75.2 °F - 35.6 °F 24% - 10.0 mi WSW 5.8 mph - N/A   Clear
2:56 PM 75.2 °F - 35.6 °F 24% 30.22 in 10.0 mi South 4.6 mph - N/A   Clear
4:04 PM 78.8 °F - 28.4 °F 16% 30.19 in 10.0 mi Calm Calm - N/A   Clear
4:51 PM 80.6 °F - 30.2 °F 16% 30.18 in 10.0 mi Calm Calm - N/A   Clear
5:58 PM 80.6 °F - 33.8 °F 18% 30.17 in 10.0 mi Calm Calm - N/A   Clear
6:57 PM 78.8 °F - 37.4 °F 23% 30.15 in - Calm Calm - N/A   Clear
7:51 PM 78.8 °F - 41.0 °F 26% 30.16 in - Calm Calm - N/A   Clear
9:15 PM 66.2 °F - 42.8 °F 43% 30.16 in 10.0 mi NNW 5.8 mph - N/A   Clear
9:35 PM 66.2 °F - 42.8 °F 43% 30.17 in 10.0 mi Calm Calm - N/A   Clear
9:55 PM 62.6 °F - 42.8 °F 48% 30.18 in 10.0 mi Calm Calm - N/A   Clear
10:15 PM 59.0 °F - 42.8 °F 55% 30.18 in 10.0 mi Calm Calm - N/A   Clear
10:35 PM 55.4 °F - 44.6 °F 67% 30.19 in 10.0 mi North 5.8 mph - N/A   Clear
10:55 PM 53.6 °F - 44.6 °F 72% 30.19 in 10.0 mi North 3.5 mph - N/A   Clear
11:15 PM 53.6 °F - 44.6 °F 72% 30.19 in 10.0 mi NNE 3.5 mph - N/A   Clear
11:35 PM 53.6 °F - 44.6 °F 72% 30.20 in 10.0 mi North 9.2 mph - N/A   Clear
11:55 PM 51.8 °F - 42.8 °F 71% 30.20 in 10.0 mi North 8.1 mph - N/A   Clear